This demonstration page uses our WeatherBlox Daily Observations layout. Learn more.

Left ArrowRight Arrow

38.20091, -84.87328

Hourly Observations for July 31, 2015

Temp ( °F °C ) Dew Point ( °F °C ) Humidity (%) Winds ( mph kmh ) Pressure ( in mb ) Visibility ( mi km ) Precip ( " mm )
12:53 am 00:53 Clear 66 18.9 62 16.7 87 87 Calm 30.06 1018 10 16 0.00 0.00
1:53 am 01:53 Clear 64 17.8 62 16.7 93 93 Calm 30.05 1018 10 16 0.00 0.00
2:53 am 02:53 Clear 63 17.2 61 16.1 93 93 Calm 30.04 1017 10 16 0.00 0.00
3:53 am 03:53 Clear 63 17.2 60 15.6 90 90 NNW 3 6 30.04 1017 10 16 0.00 0.00
4:53 am 04:53 Clear 63 17.2 59 15 87 87 Calm 30.03 1017 10 16 0.00 0.00
5:53 am 05:53 Clear 61 16.1 59 15 93 93 Calm 30.03 1017 10 16 0.00 0.00
6:53 am 06:53 Sunny 61 16.1 58 14.4 90 90 Calm 30.05 1018 10 16 0.00 0.00
7:53 am 07:53 Sunny 64 17.8 60 15.6 87 87 Calm 30.06 1018 10 16 0.00 0.00
8:53 am 08:53 Sunny 71 21.7 64 17.8 79 79 Calm 30.06 1018 10 16 0.00 0.00
9:53 am 09:53 Sunny 77 25 64 17.8 64 64 NNW 3 6 30.06 1018 10 16 0.00 0.00
10:53 am 10:53 Sunny 82 27.8 62 16.7 51 51 VRB 5 7 30.06 1018 10 16 0.00 0.00
11:53 am 11:53 Sunny 84 28.9 62 16.7 48 48 NW 6 9 30.06 1018 10 16 0.00 0.00
12:53 pm 12:53 Sunny 85 29.4 62 16.7 46 46 W 7 11 30.04 1017 10 16 0.00 0.00
1:53 pm 13:53 Mostly Sunny 85 29.4 58 14.4 40 40 WNW 6 9 30.03 1017 10 16 0.00 0.00
2:53 pm 14:53 Mostly Sunny 86 30 61 16.1 43 43 VRB 6 9 30.01 1016 10 16 0.00 0.00
3:53 pm 15:53 Sunny 86 30 60 15.6 42 42 NW 7 11 30.00 1016 10 16 0.00 0.00
4:53 pm 16:53 Mostly Sunny 86 30 57 13.9 37 37 WNW 9 15 29.98 1015 10 16 0.00 0.00
5:53 pm 17:53 Mostly Sunny 86 30 57 13.9 37 37 WNW 7 11 29.98 1015 10 16 0.00 0.00
6:53 pm 18:53 Sunny 85 29.4 57 13.9 39 39 WNW 6 9 29.96 1015 10 16 0.00 0.00
7:53 pm 19:53 Sunny 83 28.3 59 15 44 44 W 3 6 29.96 1015 10 16 0.00 0.00
8:53 pm 20:53 Clear 75 23.9 64 17.8 69 69 WSW 3 6 29.97 1015 10 16 0.00 0.00
9:53 pm 21:53 Clear 72 22.2 64 17.8 76 76 SW 5 7 29.97 1015 10 16 0.00 0.00
10:53 pm 22:53 Clear 71 21.7 63 17.2 76 76 WSW 6 9 29.98 1015 10 16 0.00 0.00
11:53 pm 23:53 Clear 71 21.7 62 16.7 73 73 WSW 6 9 29.98 1015 10 16 0.00 0.00

Powered by AerisWeather